Location: Bun Machan
(52.1403°N, 7.3744°W)
Time: 19:17:38
(UTC+00:00)

Cosmos 2228 Rocket - Pass Details

Date: 14 July 2020
Orbit: 617 x 653 km, 82.5° (Epoch: 12 August)

Event Time Altitude Azimuth Distance (km) Brightness Sun altitude
Rises 00:10:04 0° 345° (NNW) 2,984 8.3 -16.0°
Reaches altitude 10° 00:12:23 10° 341° (NNW) 2,065 7.0 -16.1°
Maximum altitude 00:16:49 51° 266° (W) 821 3.6 -16.1°
Enters shadow 00:19:06 26° 203° (SSW) 1,274 4.1 -16.1°
